This is the latest recevied weather packets stored in our database for station/object XE2G-31. If no packets are shown the sender has not sent any weather packets the latest 10 day(s).
| Time | Temp. | Humidity | Pressure | Rain* | Wind** | Luminosity | Snow |
|---|---|---|---|---|---|---|---|
| 1777755829 | 15° C | 78% | 873 hPa | - | - | - | - |
| 1777754882 | 15.56° C | 79% | 873 hPa | - | - | - | - |
| 1777753935 | 15.56° C | 78% | 873 hPa | - | - | - | - |
| 1777752988 | 15.56° C | 78% | 873 hPa | - | - | - | - |
| 1777752041 | 15.56° C | 78% | 873 hPa | - | - | - | - |
| 1777751094 | 16.11° C | 76% | 873 hPa | - | - | - | - |
| 1777750148 | 16.11° C | 77% | 873 hPa | - | - | - | - |
| 1777749201 | 16.11° C | 78% | 873 hPa | - | - | - | - |
| 1777748254 | 16.11° C | 78% | 873 hPa | - | - | - | - |
| 1777747307 | 15.56° C | 79% | 874 hPa | - | - | - | - |
| 1777746360 | 15.56° C | 80% | 874 hPa | - | - | - | - |
| 1777745413 | 16.11° C | 79% | 873 hPa | - | - | - | - |
| 1777744467 | 16.67° C | 78% | 874 hPa | - | - | - | - |
| 1777743518 | 16.67° C | 76% | 874 hPa | - | - | - | - |
| 1777742571 | 16.11° C | 76% | 874 hPa | - | - | - | - |
| 1777741624 | 17.22° C | 76% | 874 hPa | - | - | - | - |
| 1777740677 | 17.22° C | 72% | 874 hPa | - | - | - | - |
| 1777739730 | 18.33° C | 73% | 874 hPa | - | - | - | - |
| 1777738783 | 17.22° C | 72% | 874 hPa | - | - | - | - |
| 1777737837 | 16.67° C | 78% | 874 hPa | - | - | - | - |
| 1777736890 | 16.11° C | 78% | 874 hPa | - | - | - | - |
| 1777734996 | 15.56° C | 81% | 873 hPa | - | - | - | - |
| 1777734049 | 15° C | 81% | 873 hPa | - | - | - | - |
| 1777733102 | 15° C | 82% | 873 hPa | - | - | - | - |
| 1777732156 | 15° C | 83% | 873 hPa | - | - | - | - |
* Rain since midnight (hover to see other rain measurements)
** Current wind speed in m/s (hover to see current wind gust speed)